Theta_e
307 307 305 305 300 302 301 297 296 296 296 296 295 296 297 298 298 299 301 303 305 303 302 304 306 308 313 320 321 325 327 325 324 323 318 310 311 311 308 310 304 305 303 302 301
304 303 301 299 297 296 297 296 296 297 296 295 295 295 296 297 299 298 300 299 300 301 303 309 313 314 315 318 319 323 322 319 311 307 305 305 302 301 301 301 303 301 301 301 301
298 297 296 296 296 296 296 296 296 296 296 295 296 296 296 298 301 298 297 300 299 301 302 305 308 312 314 313 313 313 317 314 305 302 301 301 301 301 300 302 300 298 299 300 302
295 295 295 295 295 295 296 296 296 296 296 296 297 298 299 300 301 297 297 298 299 301 302 303 305 309 308 309 309 309 305 305 303 299 301 300 301 301 302 302 300 299 300 301 301
296 296 295 295 295 295 295 296 296 296 297 297 297 297 300 299 296 297 297 298 299 300 302 303 304 305 304 304 305 304 301 300 300 300 300 301 302 301 301 300 300 300 301 301 302
296 296 296 295 295 295 295 296 296 296 296 297 298 300 302 298 296 297 298 298 298 300 300 301 302 303 302 302 303 303 302 300 300 300 301 300 301 301 301 300 300 301 301 300 301
297 296 296 296 296 295 296 296 296 296 297 297 298 299 298 296 297 297 298 298 298 298 299 299 302 303 303 300 300 301 302 302 300 300 301 300 304 301 301 301 300 300 301 301 301
297 297 296 296 296 295 296 296 296 296 297 297 298 300 298 296 297 297 297 298 298 298 298 300 301 300 301 300 300 302 302 305 301 300 301 301 306 301 302 301 299 300 300 301 300
297 297 297 296 296 296 296 296 296 297 297 298 300 302 298 297 297 297 297 298 299 300 301 301 303 303 301 302 303 304 303 302 303 300 300 300 301 303 303 301 299 299 299 300 299
298 297 297 296 296 296 297 296 297 299 298 300 300 304 298 298 297 297 297 298 299 301 303 304 304 302 300 302 304 301 301 301 302 301 300 299 299 300 301 301 299 299 299 299 299
299 298 297 296 295 296 298 303 306 306 297 296 297 299 298 297 298 298 297 299 302 302 301 302 300 299 299 299 299 299 300 301 301 300 297 299 300 300 301 300 298 300 299 299 298
300 300 298 296 295 296 299 300 298 300 301 297 297 297 296 297 299 298 298 302 303 301 302 302 299 298 299 300 301 301 300 300 300 300 298 298 299 299 300 300 300 300 298 299 299
300 300 299 295 296 297 297 298 297 298 303 297 296 297 297 297 297 297 298 300 301 301 300 301 298 298 299 300 300 302 301 298 298 298 299 298 299 303 301 300 300 300 299 300 299
300 301 298 296 300 298 297 295 297 298 307 304 299 298 298 298 299 296 297 298 300 300 299 298 296 298 299 300 299 301 298 298 298 298 300 300 298 304 300 299 299 300 300 300 299
300 301 299 295 299 298 295 295 296 301 311 299 298 295 297 299 297 298 296 300 300 299 301 300 298 298 300 299 298 301 297 298 298 297 298 300 298 301 301 301 299 299 301 300 299
299 300 299 299 298 295 295 297 300 311 308 299 297 298 299 299 298 298 299 297 298 299 299 297 296 298 298 298 298 298 298 300 298 297 302 301 299 299 300 301 301 301 301 300 298
298 300 299 296 300 295 295 300 309 310 298 306 301 298 299 299 299 298 299 301 302 308 310 297 298 296 296 297 297 298 302 310 308 306 313 297 298 298 302 301 300 300 299 298 297
298 300 300 297 296 294 299 307 304 309 305 295 297 297 302 297 298 298 299 302 298 299 305 307 308 297 295 296 295 298 298 303 304 307 304 297 299 300 302 302 300 299 298 298 297
299 303 302 300 297 295 304 307 308 308 302 297 296 301 305 297 297 298 299 302 300 299 308 306 304 294 295 295 295 297 302 297 299 297 299 299 301 301 302 300 299 299 299 297 296
302 302 303 300 296 299 301 306 303 298 297 298 303 303 306 301 298 298 301 300 298 297 295 298 304 295 295 295 295 296 297 301 300 301 301 305 304 303 301 301 301 299 297 297 297
302 304 300 298 297 297 302 303 299 295 296 298 300 300 304 299 302 303 304 300 299 296 297 296 299 300 295 295 298 295 296 296 296 299 303 304 302 302 302 301 300 298 296 297 297
302 301 297 295 300 298 302 300 293 295 294 296 295 298 300 300 298 300 303 302 297 295 296 297 298 300 301 294 293 295 298 298 299 299 297 299 299 300 301 300 298 296 297 297 297
302 300 296 297 303 301 298 294 293 295 295 296 297 296 296 298 297 300 301 294 297 296 296 294 298 299 301 295 293 292 296 297 296 297 297 299 300 300 298 296 296 297 297 296 296
298 300 297 297 296 302 301 298 296 295 296 296 297 295 294 295 296 297 297 294 295 297 296 296 298 299 302 302 296 293 294 295 293 296 298 299 299 300 300 299 298 297 297 295 295
298 300 298 297 297 298 300 300 299 295 293 295 295 295 295 294 296 294 296 294 294 297 296 294 289 294 294 295 294 293 293 295 295 296 296 299 298 299 299 298 297 297 296 295 295
298 298 293 300 299 299 299 299 298 298 293 294 296 296 297 295 297 297 295 295 295 295 296 294 292 290 288 294 294 294 295 295 296 296 295 295 295 296 296 296 296 296 296 295 294
298 295 298 299 299 300 302 300 299 297 295 297 294 297 295 296 298 294 294 295 295 294 296 293 291 288 292 293 292 292 293 294 294 295 295 295 296 297 297 297 298 297 295 295 294
Wind_Speed
16 16 16 15 16 16 16 18 16 14 15 12 9 7 3 10 25 34 25 18 19 25 14 8 1 5 7 2 4 2 2 4 5 6 5 12 9 8 8 6 10 11 12 18 28
17 16 15 14 14 13 14 14 13 14 16 19 12 7 3 2 3 27 24 23 25 19 10 11 6 7 2 1 3 3 2 5 7 9 6 9 9 9 6 8 7 14 21 28 28
16 15 15 13 13 12 13 13 11 15 17 19 16 10 3 1 0 12 30 24 26 14 6 6 6 7 6 8 5 7 5 6 8 7 6 8 9 7 8 6 7 10 11 15 19
16 15 16 14 12 14 14 12 12 17 17 18 14 11 7 2 3 14 25 24 22 14 3 3 3 2 5 5 2 5 7 8 5 4 4 6 8 7 5 5 8 7 9 11 9
16 15 14 14 15 17 13 10 11 19 16 14 14 5 2 6 6 18 20 23 16 18 18 6 9 6 6 4 5 7 4 7 2 6 2 9 8 3 3 6 7 7 7 7 8
17 16 14 14 15 18 14 11 10 19 12 11 12 6 4 6 7 17 15 18 23 20 20 17 4 7 9 5 7 4 7 4 3 7 2 7 6 6 3 6 7 6 6 7 7
16 17 17 15 15 18 14 11 10 15 10 10 11 9 12 4 6 15 14 10 14 16 7 13 11 2 5 5 2 2 1 4 5 5 4 7 5 8 4 3 6 6 5 5 8
17 17 17 16 15 19 13 12 9 14 9 7 7 7 5 5 4 17 19 3 10 8 4 6 2 6 4 3 4 1 2 3 3 6 3 6 1 5 3 3 7 7 5 4 6
17 17 17 17 16 19 14 10 7 9 6 9 4 1 4 5 8 19 14 9 12 8 4 4 2 4 3 1 2 4 2 5 4 4 2 5 7 7 2 1 6 7 7 6 7
18 18 18 18 16 20 14 8 6 13 5 4 8 3 5 6 9 15 13 12 4 12 1 5 1 5 6 4 2 1 3 4 6 2 3 9 18 17 10 6 7 6 6 6 7
17 17 16 17 15 19 13 5 5 1 15 5 3 2 3 12 4 15 13 14 3 4 4 6 8 6 8 7 5 4 4 8 5 6 6 6 13 13 8 6 7 4 6 6 7
15 16 16 15 11 17 11 7 2 1 3 4 2 4 3 7 3 16 19 4 6 4 2 4 5 5 2 4 4 2 7 6 8 3 7 9 20 18 11 7 6 5 7 7 6
14 16 16 12 7 11 18 7 2 2 1 4 3 4 4 8 4 9 13 3 4 6 7 6 4 2 1 2 7 1 3 5 6 11 11 9 8 2 5 8 4 6 9 5 6
14 17 18 7 3 5 5 4 3 2 4 3 3 3 2 4 3 6 7 3 4 3 4 6 2 0 0 3 4 2 5 6 9 7 4 3 5 4 7 8 7 9 6 4 6
12 14 14 13 2 4 2 3 3 2 3 2 3 3 4 3 3 3 4 3 4 3 1 2 3 1 2 3 1 3 6 6 4 6 7 4 1 7 7 6 9 8 4 5 5
10 13 11 5 6 3 3 4 2 5 5 1 3 2 2 2 1 1 1 5 2 2 5 4 2 3 6 2 5 7 6 5 3 3 1 3 1 6 5 5 2 3 3 3 6
8 11 11 6 2 6 5 2 4 3 1 1 1 2 1 2 1 4 2 2 2 3 1 3 3 3 2 4 3 4 3 2 4 2 4 6 3 11 7 4 3 2 4 8 7
5 7 7 6 4 6 4 4 2 2 4 0 3 1 1 3 1 1 2 2 1 1 2 0 4 1 2 3 2 3 3 2 4 3 4 5 6 6 4 1 6 6 6 7 7
4 3 1 5 5 5 2 2 6 5 5 7 1 0 2 1 0 1 3 1 3 2 4 2 1 3 5 3 3 1 2 1 2 2 2 5 7 9 2 4 3 5 3 8 9
2 6 1 4 2 5 3 5 4 1 4 2 5 3 3 2 1 1 4 3 5 2 1 2 0 2 2 2 1 2 1 1 1 3 5 6 6 10 6 7 4 3 7 9 7
2 1 3 2 4 4 2 5 4 3 2 5 3 3 3 4 4 3 3 2 4 4 2 2 3 0 3 6 5 2 2 1 1 2 3 4 6 4 2 2 3 5 9 9 8
4 1 2 8 3 2 3 3 5 2 2 1 1 2 7 7 5 3 6 3 6 7 6 4 3 3 4 4 4 3 2 6 4 4 3 1 9 7 0 2 5 9 9 8 7
3 2 0 3 4 3 2 3 4 4 4 4 5 5 3 6 1 5 2 4 6 6 5 6 2 2 3 3 4 3 5 4 3 2 6 5 8 1 4 5 7 8 8 8 8
3 3 1 2 2 3 4 5 5 6 2 2 2 4 3 4 4 2 3 1 3 3 4 5 1 5 6 4 4 3 4 6 6 4 4 17 19 24 21 19 12 14 13 9 8
3 5 5 6 6 8 6 7 5 6 2 4 3 7 7 5 5 5 5 3 1 4 2 4 5 2 5 5 5 7 9 12 18 21 9 20 14 26 14 16 19 18 9 8 8
6 4 1 2 2 16 12 9 12 5 9 6 6 11 9 8 9 8 8 6 6 6 6 3 2 2 5 8 6 7 17 18 25 24 23 29 30 36 29 25 17 9 7 8 8
8 3 3 8 6 8 9 11 19 10 10 8 16 6 14 16 6 2 3 1 8 10 10 6 4 3 5 3 6 8 15 21 10 10 25 18 29 16 18 17 5 7 7 9 8
Wind_Direction
41 40 41 40 46 46 43 53 50 40 23 2 347 314 103 53 48 46 37 346 333 339 347 308 271 203 236 79 349 284 265 247 30 10 30 17 359 4 354 308 341 23 17 351 346
37 38 39 42 45 44 32 32 28 20 14 10 1 342 234 52 47 43 360 1 4 6 5 23 90 178 78 37 12 353 231 60 29 34 6 342 355 359 351 324 10 359 349 353 348
37 34 34 33 32 26 15 18 25 23 14 14 19 34 108 74 150 11 352 359 11 13 40 13 345 76 66 43 350 15 43 120 42 35 344 3 2 311 353 16 26 343 342 341 349
32 27 26 24 25 16 12 23 28 16 6 9 14 57 62 19 66 342 350 1 17 28 20 197 221 30 54 67 3 111 45 23 36 28 11 356 303 318 340 18 4 332 338 352 344
28 20 17 12 2 356 352 352 353 356 360 12 23 46 317 60 38 342 355 13 22 37 33 17 44 64 87 65 35 61 91 74 52 42 352 340 321 333 323 22 339 344 351 1 6
19 14 13 3 358 352 347 342 340 355 11 17 37 31 304 71 348 345 359 18 26 42 38 43 36 60 72 47 38 32 59 53 32 28 43 351 302 304 104 23 329 347 358 359 1
13 11 4 3 356 352 347 337 332 350 5 18 44 70 63 81 3 357 4 9 21 29 41 28 17 150 157 114 24 207 278 196 84 355 42 324 266 214 78 357 323 336 344 360 338
6 6 1 358 352 354 344 345 341 344 10 24 44 70 85 8 37 10 4 358 22 25 52 28 91 97 53 152 178 221 343 319 91 3 49 359 168 145 123 356 326 318 327 338 318
2 359 1 355 352 349 347 341 348 3 18 35 30 83 81 353 19 358 355 348 342 7 17 3 25 65 210 195 105 45 329 16 326 98 318 42 282 218 11 250 309 311 320 320 313
359 358 356 350 354 353 346 329 341 22 353 3 32 58 37 354 326 346 347 357 337 312 274 7 78 75 21 358 170 46 345 340 301 39 8 288 268 265 269 212 255 292 301 310 325
357 357 355 350 356 358 357 5 313 21 38 73 346 63 18 326 352 9 350 321 234 60 28 7 64 61 29 22 17 28 318 280 315 24 349 285 288 275 266 209 238 284 312 315 315
351 352 352 351 358 13 38 62 64 329 81 36 51 96 19 338 340 11 3 44 38 52 307 50 80 58 42 337 347 301 291 333 301 78 336 284 287 273 241 229 203 253 286 294 310
346 348 350 350 20 36 68 72 69 341 265 46 24 22 344 335 48 350 359 347 18 45 36 77 106 126 4 24 12 311 309 6 294 314 266 289 271 215 192 189 166 239 251 279 310
343 351 356 2 51 49 59 14 26 46 75 325 63 47 317 330 68 356 4 356 52 75 41 73 128 175 336 95 25 315 47 332 308 327 298 39 284 240 175 196 217 232 231 297 303
338 351 359 36 39 43 357 9 13 334 8 54 52 328 303 42 319 45 340 300 47 78 314 157 162 177 242 80 100 228 13 284 307 291 315 199 283 262 123 201 233 207 176 251 292
336 350 358 9 27 46 7 7 358 43 262 23 328 336 241 11 73 233 81 76 355 70 43 73 27 333 8 296 232 292 285 204 215 229 328 124 49 277 187 200 153 181 211 319 307
336 349 11 9 6 345 354 253 36 147 81 270 190 355 303 34 101 19 20 64 51 52 14 156 127 100 329 305 169 302 318 318 349 5 236 116 323 250 283 205 188 268 311 283 291
333 348 351 20 1 354 356 45 122 198 221 232 153 129 21 347 86 307 192 173 89 298 113 80 316 100 348 49 343 6 26 125 260 300 310 142 235 255 177 334 240 220 259 278 308
328 336 325 327 355 22 45 79 216 203 153 155 117 160 299 223 243 243 213 165 112 161 148 132 223 97 38 348 343 20 64 60 307 137 349 241 273 286 304 199 165 202 329 315 298
340 311 188 310 50 22 74 235 223 247 127 166 176 188 204 210 236 228 177 182 141 81 44 192 27 1 113 249 71 336 51 113 326 357 290 284 277 248 240 248 177 20 317 288 301
190 278 308 164 93 57 201 245 241 234 256 183 215 139 216 185 192 214 223 297 125 133 114 132 111 232 44 201 175 156 167 61 83 162 227 301 254 219 282 351 297 294 276 293 326
163 231 209 153 80 144 196 207 332 175 81 152 289 276 189 170 187 234 217 173 153 157 159 203 134 219 202 80 47 352 226 173 143 234 242 283 267 266 236 201 245 265 282 309 325
181 150 6 134 181 210 231 220 207 199 213 178 204 225 26 171 205 185 185 40 168 177 165 194 225 356 304 11 13 220 205 231 63 72 213 159 262 128 148 235 246 285 321 321 311
136 168 277 247 99 196 170 225 203 183 232 181 171 74 123 211 215 206 206 144 191 169 107 160 221 195 205 186 122 192 221 212 154 185 202 226 275 269 281 297 298 317 313 296 298
181 218 173 181 218 198 184 163 166 191 215 191 209 209 165 177 189 206 193 118 167 171 181 133 203 208 280 261 207 204 219 198 210 219 211 258 261 271 270 288 299 301 281 293 310
158 162 259 157 145 184 190 208 181 164 152 218 219 190 186 184 183 185 164 164 191 170 170 163 247 79 281 258 243 250 249 234 230 237 246 256 270 267 280 281 280 276 295 296 304
155 149 171 174 164 165 198 194 205 159 218 193 198 153 198 219 123 86 27 113 155 160 178 156 143 114 262 336 312 283 236 228 208 216 223 235 241 266 276 277 281 294 296 286 297